Погода в Тахуа

Нигер     14°53′27″N   5°16′15″E
темп.,
°C
ветер,
м/с
пор.,
м/с
влажн.,
%
обл.,
%
осадки,
мм/ч
давл.,
гПа
погр.,
м
9 августа, вт
вт901:00+28ююз4669100 0.0 1011646
04:00+27ююв2263100 0.0 1010110
07:00+27ююв0160100 0.0 1011133
10:00+29ююв115294 0.0 1012504
13:00+32ююз544278 0.0 10111172
16:00+32ююз334141 0.0 10091491
19:00+32ююз33416 0.1 10091385
22:00+31юз45475 0.0 1011505
10 августа, ср
ср1001:00+29ююз35545 0.0 1011284
04:00+28юз46595 0.0 1010313
07:00+27юз47685 0.0 1011432
10:00+30юз66565 0.0 1012978
13:00+33юз44443 0.0 10101636
16:00+35юз433772 0.0 10082508
19:00+34зюз43385 0.1 10081126
22:00+32зюз454422 0.0 1010276
11 августа, чт
чт1101:00+31юз4749100 0.0 1009276
04:00+29юз7105688 0.0 1009589
07:00+28зсз3664100 0.2 1012569
10:00+30з895599 1.0 1011786
13:00+34зсз6542100 1.0 10101687
16:00+36зсз45345 0.0 10072090
19:00+36зсз563410 0.0 1005495
22:00+34юз3541100 0.0 1007225
12 августа, пт
пт1201:00+24ю121479100 2.6 1010554
04:00+23ююз81074100 0.7 1010506
07:00+24юз81074100 0.7 1011534
10:00+26з5762100 0.5 1012562
13:00+31зюз664575 0.6 10101121
16:00+32юз544314 0.1 10091601
19:00+31зюз55479 0.1 10091484
22:00+29юз565487 0.0 1011792
13 августа, сб
сб1301:00+29зюз465775 0.0 1011487
04:00+27юз576638 0.0 1010473
07:00+26юз687299 0.0 1012498
10:00+29зюз675881 0.0 1013909
13:00+32з66455 0.0 10111427
16:00+34з54391 0.0 10091770
19:00+33зюз444092 0.0 10091111
22:00+32зюз5745100 0.0 1011547